KE7YUP Weather Reports


time (UTC)temp
C
wind
direction
speed
KPH
gust
KPH
rain 1hr
cm
rain 24hr
cm
rain mn
cm
humidity
%
barometer
mb
20260509044415 19 264 4.8 6.4 0.00 0.00 0.00 27 1018.0
20260509043415 19 277 9.7 12.9 0.00 0.00 0.00 27 1017.9
20260509042415 19 319 8.0 11.3 0.00 0.00 0.00 26 1017.8
20260509041415 19 312 4.8 11.3 0.00 0.00 0.00 26 1017.3
20260509040415 19 314 8.0 12.9 0.00 0.00 0.00 26 1017.2
20260509035416 19 320 4.8 8.0 0.00 0.00 0.00 26 1017.3
20260509034435 19 320 1.6 3.2 0.00 0.00 0.00 27 1016.9
20260509033415 19 311 8.0 12.9 0.00 0.00 0.00 26 1016.8
20260509032435 18 289 8.0 12.9 0.00 0.00 0.00 27 1016.7
20260509031435 18 333 3.2 3.2 0.00 0.00 0.00 28 1016.2
20260509030415 18 333 4.8 6.4 0.00 0.00 0.00 28 1016.3
20260509025415 19 315 8.0 12.9 0.00 0.00 0.00 26 1016.4
20260509024415 20 312 14.5 17.7 0.00 0.00 0.00 27 1016.3
20260509023435 20 324 9.7 12.9 0.00 0.00 0.00 26 1016.3
20260509022415 20 309 9.7 12.9 0.00 0.00 0.00 26 1016.3
20260509021435 20 300 4.8 6.4 0.00 0.00 0.00 25 1015.8
20260509020415 21 298 3.2 6.4 0.00 0.00 0.00 24 1016.2
20260509015415 22 317 8.0 12.9 0.00 0.00 0.00 22 1016.5
20260509014415 22 308 6.4 14.5 0.00 0.00 0.00 20 1015.4
20260509013415 23 317 8.0 14.5 0.00 0.00 0.00 20 1015.8
20260509012415 23 334 11.3 16.1 0.00 0.00 0.00 20 1015.8
20260509011415 23 3 9.7 17.7 0.00 0.00 0.00 22 1016.2
20260509010435 23 326 11.3 19.3 0.00 0.00 0.00 22 1016.3
20260509005417 23 354 4.8 17.7 0.00 0.00 0.00 21 1016.3
20260509004417 23 28 19.3 24.1 0.00 0.00 0.00 22 1015.9
20260509003417 23 39 19.3 24.1 0.00 0.00 0.00 22 1016.3
20260509002417 23 359 12.9 17.7 0.00 0.00 0.00 22 1016.4
20260509001417 23 38 11.3 19.3 0.00 0.00 0.00 22 1016.0
20260509000418 23 6 11.3 20.9 0.00 0.00 0.00 22 1016.1
20260508235417 23 38 20.9 29.0 0.00 0.00 0.00 22 1016.2
20260508234417 23 36 19.3 29.0 0.00 0.00 0.00 22 1016.8
20260508233417 23 15 17.7 27.4 0.00 0.00 0.00 22 1016.8
20260508232417 23 42 17.7 25.7 0.00 0.00 0.00 23 1017.0
20260508231437 23 38 20.9 29.0 0.00 0.00 0.00 22 1016.7
20260508230417 22 45 17.7 24.1 0.00 0.00 0.00 23 1016.7
20260508225418 22 31 12.9 27.4 0.00 0.00 0.00 23 1016.9
20260508224417 22 12 14.5 32.2 0.00 0.00 0.00 24 1017.9
20260508223417 22 44 24.1 33.8 0.00 0.00 0.00 24 1018.1
20260508222417 22 35 14.5 30.6 0.00 0.00 0.00 24 1018.1
20260508221417 22 36 25.7 40.2 0.00 0.00 0.00 24 1018.4
20260508220417 22 10 9.7 25.7 0.00 0.00 0.00 25 1018.7
20260508215417 22 43 20.9 32.2 0.00 0.00 0.00 24 1018.7
20260508214417 22 36 20.9 30.6 0.00 0.00 0.00 24 1018.8
20260508213416 22 43 22.5 32.2 0.00 0.00 0.00 24 1018.9
20260508212416 22 7 16.1 35.4 0.00 0.00 0.00 24 1019.1
20260508211416 22 47 25.7 38.6 0.00 0.00 0.00 24 1018.6
20260508210417 22 39 20.9 30.6 0.00 0.00 0.00 25 1018.7
20260508205436 22 42 19.3 32.2 0.00 0.00 0.00 24 1018.9
20260508204416 22 38 17.7 27.4 0.00 0.00 0.00 25 1018.6
20260508203416 22 360 17.7 37.0 0.00 0.00 0.00 24 1018.6
20260508202417 22 11 17.7 30.6 0.00 0.00 0.00 25 1018.8
20260508201416 22 359 20.9 30.6 0.00 0.00 0.00 25 1019.0
20260508200416 22 31 24.1 32.2 0.00 0.00 0.00 23 1019.2
20260508195416 22 350 16.1 30.6 0.00 0.00 0.00 21 1018.9
20260508194416 22 308 12.9 24.1 0.00 0.00 0.00 22 1019.4
20260508193416 22 324 19.3 33.8 0.00 0.00 0.00 23 1019.6
20260508192416 21 336 17.7 25.7 0.00 0.00 0.00 22 1019.7
20260508191416 21 311 19.3 32.2 0.00 0.00 0.00 24 1019.7
20260508190416 21 356 20.9 24.1 0.00 0.00 0.00 23 1019.9
20260508185416 21 305 16.1 33.8 0.00 0.00 0.00 23 1020.2
20260508184457 21 308 24.1 33.8 0.00 0.00 0.00 25 1020.7
20260508183416 21 355 17.7 24.1 0.00 0.00 0.00 31 1020.7
20260508182456 20 352 11.3 19.3 0.00 0.00 0.00 32 1020.5
20260508181436 21 355 14.5 22.5 0.00 0.00 0.00 30 1020.9
20260508180416 21 41 20.9 24.1 0.00 0.00 0.00 32 1020.9
20260508175416 21 354 8.0 16.1 0.00 0.00 0.00 30 1020.8
20260508174416 20 204 8.0 14.5 0.00 0.00 0.00 35 1020.7
20260508173416 20 164 3.2 12.9 0.00 0.00 0.00 35 1020.8
20260508172416 21 134 8.0 14.5 0.00 0.00 0.00 35 1020.7
20260508171436 20 95 4.8 16.1 0.00 0.00 0.00 35 1020.5
20260508170416 20 108 4.8 9.7 0.00 0.00 0.00 36 1020.4
20260508165416 19 105 9.7 16.1 0.00 0.00 0.00 38 1020.1
20260508164416 19 106 4.8 8.0 0.00 0.00 0.00 39 1020.8
20260508163416 19 103 1.6 9.7 0.00 0.00 0.00 38 1020.8
20260508162416 18 137 6.4 11.3 0.00 0.00 0.00 41 1020.4
20260508161416 18 139 3.2 4.8 0.00 0.00 0.00 40 1020.5
20260508160416 18 149 4.8 11.3 0.00 0.00 0.00 41 1020.2
20260508155416 18 102 4.8 9.7 0.00 0.00 0.00 41 1020.2
20260508154436 17 88 1.6 6.4 0.00 0.00 0.00 43 1020.3
20260508153416 17 159 0.0 1.6 0.00 0.00 0.00 44 1019.9
20260508152416 16 84 3.2 6.4 0.00 0.00 0.00 47 1019.9
20260508151416 16 149 1.6 4.8 0.00 0.00 0.00 48 1020.3
20260508150436 16 117 4.8 8.0 0.00 0.00 0.00 48 1020.2
20260508145416 16 116 4.8 6.4 0.00 0.00 0.00 49 1020.2
20260508144415 16 111 6.4 9.7 0.00 0.00 0.00 48 1020.1
20260508143416 16 150 4.8 8.0 0.00 0.00 0.00 48 1020.2
20260508142415 16 142 1.6 1.6 0.00 0.00 0.00 45 1020.2
20260508141416 15 151 1.6 3.2 0.00 0.00 0.00 49 1020.4
20260508140415 15 308 0.0 1.6 0.00 0.00 0.00 50 1020.2
20260508135415 15 0.0 0.0 0.00 0.00 0.00 45 1020.1
20260508134416 13 309 1.6 3.2 0.00 0.00 0.00 45 1020.0
20260508133436 12 309 0.0 3.2 0.00 0.00 0.00 53 1019.6
20260508132415 12 309 0.0 1.6 0.00 0.00 0.00 50 1019.3
20260508131416 11 0.0 0.0 0.00 0.00 0.00 51 1018.7
20260508130415 11 309 1.6 3.2 0.00 0.00 0.00 49 1018.9
20260508125415 11 309 0.0 3.2 0.00 0.00 0.00 48 1018.9
20260508124416 12 309 3.2 6.4 0.00 0.00 0.00 46 1018.6
20260508123415 12 355 3.2 4.8 0.00 0.00 0.00 45 1018.6
20260508122415 12 335 6.4 8.0 0.00 0.00 0.00 45 1018.4
20260508121415 12 275 4.8 6.4 0.00 0.00 0.00 45 1018.6
20260508120415 12 296 1.6 4.8 0.00 0.00 0.00 46 1018.7
20260508115416 11 296 1.6 6.4 0.00 0.00 0.00 47 1018.3
20260508114415 11 279 3.2 3.2 0.00 0.00 0.00 46 1018.2
20260508113415 12 279 1.6 4.8 0.00 0.00 0.00 47 1018.5
20260508112435 13 325 1.6 4.8 0.00 0.00 0.00 46 1018.6
20260508111435 13 349 4.8 6.4 0.00 0.00 0.00 46 1018.7
20260508110415 12 114 1.6 3.2 0.00 0.00 0.00 46 1018.7
20260508105415 12 297 0.0 1.6 0.00 0.00 0.00 46 1018.7
20260508104415 12 331 4.8 8.0 0.00 0.00 0.00 46 1018.3
20260508103415 13 0.0 0.0 0.00 0.00 0.00 43 1018.6
20260508102415 16 149 3.2 4.8 0.00 0.00 0.00 37 1019.3
20260508101435 16 14 4.8 8.0 0.00 0.00 0.00 38 1019.2
20260508100416 16 263 1.6 4.8 0.00 0.00 0.00 36 1019.2
20260508095435 17 162 3.2 4.8 0.00 0.00 0.00 35 1019.5
20260508094441 17 338 8.0 9.7 0.00 0.00 0.00 33 1019.5
20260508093816 17 355 12.9 20.9 0.00 0.00 0.00 32 1019.4
20260508092816 17 359 14.5 22.5 0.00 0.00 0.00 32 1019.0
20260508091816 18 344 11.3 14.5 0.00 0.00 0.00 31 1019.1
20260508090816 17 3 12.9 17.7 0.00 0.00 0.00 33 1019.1
20260508085816 15 330 9.7 14.5 0.00 0.00 0.00 37 1018.6
20260508084816 15 305 8.0 12.9 0.00 0.00 0.00 38 1018.7
20260508083816 15 310 12.9 16.1 0.00 0.00 0.00 38 1018.7
20260508082816 16 301 8.0 12.9 0.00 0.00 0.00 37 1018.8
20260508081816 15 322 3.2 6.4 0.00 0.00 0.00 39 1018.5
20260508080816 14 322 3.2 4.8 0.00 0.00 0.00 40 1018.2
20260508075816 14 322 1.6 1.6 0.00 0.00 0.00 40 1018.2
20260508074816 15 322 4.8 6.4 0.00 0.00 0.00 40 1018.6
20260508073816 15 298 3.2 4.8 0.00 0.00 0.00 39 1018.6
20260508072836 15 241 6.4 8.0 0.00 0.00 0.00 39 1018.6
20260508071815 15 301 1.6 4.8 0.00 0.00 0.00 38 1018.6
20260508070836 16 301 3.2 8.0 0.00 0.00 0.00 37 1018.7
20260508065816 16 319 9.7 14.5 0.00 0.00 0.00 37 1018.6
20260508064815 16 328 9.7 14.5 0.00 0.00 0.00 36 1018.6
20260508063815 16 317 14.5 16.1 0.00 0.00 0.00 37 1018.6
20260508062816 16 320 11.3 14.5 0.00 0.00 0.00 35 1018.2
20260508061815 17 320 16.1 17.7 0.00 0.00 0.00 34 1018.5
20260508060815 17 319 8.0 11.3 0.00 0.00 0.00 34 1018.4
20260508055816 17 321 6.4 8.0 0.00 0.00 0.00 34 1018.0
20260508054817 17 321 3.2 4.8 0.00 0.00 0.00 34 1018.1
20260508053817 17 327 9.7 12.9 0.00 0.00 0.00 33 1018.1
20260508052816 17 319 12.9 14.5 0.00 0.00 0.00 33 1017.7
20260508051817 17 309 11.3 14.5 0.00 0.00 0.00 34 1017.8
20260508050816 17 313 1.6 4.8 0.00 0.00 0.00 34 1017.9
20260508045837 16 355 6.4 8.0 0.00 0.00 0.00 36 1017.1